#Datum;Uhrzeit;WR;Pac;DaySum;Status;WR;Pac;DaySum;Status;Pdc1;Udc;Temp;WR;Pac;DaySum;Status;Pdc1;Udc;Temp;WR;Pac;DaySum;Status;Pdc1;Udc;Temp;WR;Pac;DaySum;Status;Pdc1;Pdc2;Udc1;Udc2;Temp;WR;Pac;DaySum;Status;Pdc1;Pdc2;Udc1;Udc2;Temp;WR;Pac;DaySum;Status;Pdc1;Udc;Temp;WR;Pac;DaySum;Status;Pdc1;Udc;Temp;WR;Pac;DaySum;Status;Pdc1;Udc;Temp
19.11.19;23:55:00;1;220;11936;0;2;0;4075;0;0;0;0;3;0;2595;0;0;0;0;4;0;3628;0;0;0;0;5;0;10116;0;0;0;0;0;0;6;0;7572;0;0;0;0;0;0;7;0;5551;0;0;0;0;8;0;5492;0;0;0;0;9;0;2934;0;0;0;0
19.11.19;23:50:00;1;307;11917;0;2;0;4075;0;0;0;0;3;0;2595;0;0;0;0;4;0;3628;0;0;0;0;5;0;10116;0;0;0;0;0;0;6;0;7572;0;0;0;0;0;0;7;0;5551;0;0;0;0;8;0;5492;0;0;0;0;9;0;2934;0;0;0;0
19.11.19;23:45:00;1;260;11891;0;2;0;4075;0;0;0;0;3;0;2595;0;0;0;0;4;0;3628;0;0;0;0;5;0;10116;0;0;0;0;0;0;6;0;7572;0;0;0;0;0;0;7;0;5551;0;0;0;0;8;0;5492;0;0;0;0;9;0;2934;0;0;0;0
19.11.19;23:40:00;1;313;11869;0;2;0;4075;0;0;0;0;3;0;2595;0;0;0;0;4;0;3628;0;0;0;0;5;0;10116;0;0;0;0;0;0;6;0;7572;0;0;0;0;0;0;7;0;5551;0;0;0;0;8;0;5492;0;0;0;0;9;0;2934;0;0;0;0
19.11.19;23:35:00;1;278;11843;0;2;0;4075;0;0;0;0;3;0;2595;0;0;0;0;4;0;3628;0;0;0;0;5;0;10116;0;0;0;0;0;0;6;0;7572;0;0;0;0;0;0;7;0;5551;0;0;0;0;8;0;5492;0;0;0;0;9;0;2934;0;0;0;0
19.11.19;23:30:00;1;281;11820;0;2;0;4075;0;0;0;0;3;0;2595;0;0;0;0;4;0;3628;0;0;0;0;5;0;10116;0;0;0;0;0;0;6;0;7572;0;0;0;0;0;0;7;0;5551;0;0;0;0;8;0;5492;0;0;0;0;9;0;2934;0;0;0;0
19.11.19;23:25:00;1;283;11796;0;2;0;4075;0;0;0;0;3;0;2595;0;0;0;0;4;0;3628;0;0;0;0;5;0;10116;0;0;0;0;0;0;6;0;7572;0;0;0;0;0;0;7;0;5551;0;0;0;0;8;0;5492;0;0;0;0;9;0;2934;0;0;0;0
19.11.19;23:20:00;1;283;11772;0;2;0;4075;0;0;0;0;3;0;2595;0;0;0;0;4;0;3628;0;0;0;0;5;0;10116;0;0;0;0;0;0;6;0;7572;0;0;0;0;0;0;7;0;5551;0;0;0;0;8;0;5492;0;0;0;0;9;0;2934;0;0;0;0
19.11.19;23:15:00;1;318;11749;0;2;0;4075;0;0;0;0;3;0;2595;0;0;0;0;4;0;3628;0;0;0;0;5;0;10116;0;0;0;0;0;0;6;0;7572;0;0;0;0;0;0;7;0;5551;0;0;0;0;8;0;5492;0;0;0;0;9;0;2934;0;0;0;0
19.11.19;23:10:00;1;296;11722;0;2;0;4075;0;0;0;0;3;0;2595;0;0;0;0;4;0;3628;0;0;0;0;5;0;10116;0;0;0;0;0;0;6;0;7572;0;0;0;0;0;0;7;0;5551;0;0;0;0;8;0;5492;0;0;0;0;9;0;2934;0;0;0;0
19.11.19;23:05:00;1;311;11696;0;2;0;4075;0;0;0;0;3;0;2595;0;0;0;0;4;0;3628;0;0;0;0;5;0;10116;0;0;0;0;0;0;6;0;7572;0;0;0;0;0;0;7;0;5551;0;0;0;0;8;0;5492;0;0;0;0;9;0;2934;0;0;0;0
19.11.19;23:00:00;1;355;11670;0;2;0;4075;0;0;0;0;3;0;2595;0;0;0;0;4;0;3628;0;0;0;0;5;0;10116;0;0;0;0;0;0;6;0;7572;0;0;0;0;0;0;7;0;5551;0;0;0;0;8;0;5492;0;0;0;0;9;0;2934;0;0;0;0
19.11.19;22:55:00;1;268;11644;0;2;0;4075;0;0;0;0;3;0;2595;0;0;0;0;4;0;3628;0;0;0;0;5;0;10116;2;0;0;0;0;0;6;0;7572;2;0;0;0;0;0;7;0;5551;0;0;0;0;8;0;5492;0;0;0;0;9;0;2934;0;0;0;0
19.11.19;22:50:00;1;252;11621;0;2;0;4075;0;0;0;0;3;0;2595;0;0;0;0;4;0;3628;0;0;0;0;5;0;10116;2;0;0;0;0;0;6;0;7572;2;0;0;0;0;0;7;0;5551;0;0;0;0;8;0;5492;0;0;0;0;9;0;2934;0;0;0;0
19.11.19;22:45:00;1;236;11600;0;2;0;4075;0;0;0;0;3;0;2595;0;0;0;0;4;0;3628;0;0;0;0;5;0;10116;2;0;0;0;0;0;6;0;7572;2;0;0;0;0;0;7;0;5551;0;0;0;0;8;0;5492;0;0;0;0;9;0;2934;0;0;0;0
19.11.19;22:40:00;1;498;11580;0;2;0;4075;0;0;0;0;3;0;2595;0;0;0;0;4;0;3628;0;0;0;0;5;0;10116;2;0;0;0;0;0;6;0;7572;2;0;0;0;0;0;7;0;5551;0;0;0;0;8;0;5492;0;0;0;0;9;0;2934;0;0;0;0
19.11.19;22:35:00;1;600;11540;0;2;0;4075;0;0;0;0;3;0;2595;0;0;0;0;4;0;3628;0;0;0;0;5;0;10116;2;0;0;0;0;0;6;0;7572;2;0;0;0;0;0;7;0;5551;0;0;0;0;8;0;5492;0;0;0;0;9;0;2934;0;0;0;0
19.11.19;22:30:00;1;579;11489;0;2;0;4075;0;0;0;0;3;0;2595;0;0;0;0;4;0;3628;0;0;0;0;5;0;10116;2;0;0;0;0;0;6;0;7572;2;0;0;0;0;0;7;0;5551;0;0;0;0;8;0;5492;0;0;0;0;9;0;2934;0;0;0;0
19.11.19;22:25:00;1;589;11440;0;2;0;4075;0;0;0;0;3;0;2595;0;0;0;0;4;0;3628;0;0;0;0;5;0;10116;2;0;0;0;0;0;6;0;7572;2;0;0;0;0;0;7;0;5551;0;0;0;0;8;0;5492;0;0;0;0;9;0;2934;0;0;0;0
19.11.19;22:20:00;1;603;11391;0;2;0;4075;0;0;0;0;3;0;2595;0;0;0;0;4;0;3628;0;0;0;0;5;0;10116;2;0;0;0;0;0;6;0;7572;2;0;0;0;0;0;7;0;5551;0;0;0;0;8;0;5492;0;0;0;0;9;0;2934;0;0;0;0
19.11.19;22:15:00;1;938;11341;0;2;0;4075;0;0;0;0;3;0;2595;0;0;0;0;4;0;3628;0;0;0;0;5;0;10116;2;0;0;0;0;0;6;0;7572;2;0;0;0;0;0;7;0;5551;0;0;0;0;8;0;5492;0;0;0;0;9;0;2934;0;0;0;0
19.11.19;22:10:00;1;874;11268;0;2;0;4075;0;0;0;0;3;0;2595;0;0;0;0;4;0;3628;0;0;0;0;5;0;10116;2;0;0;0;0;0;6;0;7572;2;0;0;0;0;0;7;0;5551;0;0;0;0;8;0;5492;0;0;0;0;9;0;2934;0;0;0;0
19.11.19;22:05:00;1;900;11194;0;2;0;4075;0;0;0;0;3;0;2595;0;0;0;0;4;0;3628;0;0;0;0;5;0;10116;2;0;0;0;0;0;6;0;7572;2;0;0;0;0;0;7;0;5551;0;0;0;0;8;0;5492;0;0;0;0;9;0;2934;0;0;0;0
19.11.19;22:00:00;1;2062;11119;0;2;0;4075;0;0;0;0;3;0;2595;0;0;0;0;4;0;3628;0;0;0;0;5;0;10116;2;0;0;0;0;0;6;0;7572;2;0;0;0;0;0;7;0;5551;0;0;0;0;8;0;5492;0;0;0;0;9;0;2934;0;0;0;0
19.11.19;21:55:00;1;1650;10970;0;2;0;4075;0;0;0;0;3;0;2595;0;0;0;0;4;0;3628;0;0;0;0;5;0;10116;2;0;0;0;0;0;6;0;7572;2;0;0;0;0;0;7;0;5551;0;0;0;0;8;0;5492;0;0;0;0;9;0;2934;0;0;0;0
19.11.19;21:50:00;1;1804;10822;0;2;0;4075;0;0;0;0;3;0;2595;0;0;0;0;4;0;3628;0;0;0;0;5;0;10116;2;0;0;0;0;0;6;0;7572;2;0;0;0;0;0;7;0;5551;0;0;0;0;8;0;5492;0;0;0;0;9;0;2934;0;0;0;0
19.11.19;21:45:00;1;1390;10666;0;2;0;4075;0;0;0;0;3;0;2595;0;0;0;0;4;0;3628;0;0;0;0;5;0;10116;2;0;0;0;0;0;6;0;7572;2;0;0;0;0;0;7;0;5551;0;0;0;0;8;0;5492;0;0;0;0;9;0;2934;0;0;0;0
19.11.19;21:40:00;1;2115;10514;0;2;0;4075;0;0;0;0;3;0;2595;0;0;0;0;4;0;3628;0;0;0;0;5;0;10116;2;0;0;0;0;0;6;0;7572;2;0;0;0;0;0;7;0;5551;0;0;0;0;8;0;5492;0;0;0;0;9;0;2934;0;0;0;0
19.11.19;21:35:00;1;1710;10318;0;2;0;4075;0;0;0;0;3;0;2595;0;0;0;0;4;0;3628;0;0;0;0;5;0;10116;2;0;0;0;0;0;6;0;7572;2;0;0;0;0;0;7;0;5551;0;0;0;0;8;0;5492;0;0;0;0;9;0;2934;0;0;0;0
19.11.19;21:30:00;1;1578;10173;0;2;0;4075;0;0;0;0;3;0;2595;0;0;0;0;4;0;3628;0;0;0;0;5;0;10116;2;0;0;0;0;0;6;0;7572;2;0;0;0;0;0;7;0;5551;0;0;0;0;8;0;5492;0;0;0;0;9;0;2934;0;0;0;0
19.11.19;21:25:00;1;2061;10029;0;2;0;4075;0;0;0;0;3;0;2595;0;0;0;0;4;0;3628;0;0;0;0;5;0;10116;2;0;0;0;0;0;6;0;7572;2;0;0;0;0;0;7;0;5551;0;0;0;0;8;0;5492;0;0;0;0;9;0;2934;0;0;0;0
19.11.19;21:20:00;1;2147;9862;0;2;0;4075;0;0;0;0;3;0;2595;0;0;0;0;4;0;3628;0;0;0;0;5;0;10116;2;0;0;0;0;0;6;0;7572;2;0;0;0;0;0;7;0;5551;0;0;0;0;8;0;5492;0;0;0;0;9;0;2934;0;0;0;0
19.11.19;21:15:00;1;4255;9663;0;2;0;4075;0;0;0;0;3;0;2595;0;0;0;0;4;0;3628;0;0;0;0;5;0;10116;2;0;0;0;0;0;6;0;7572;2;0;0;0;0;0;7;0;5551;0;0;0;0;8;0;5492;0;0;0;0;9;0;2934;0;0;0;0
19.11.19;21:10:00;1;3579;9317;0;2;0;4075;0;0;0;0;3;0;2595;0;0;0;0;4;0;3628;0;0;0;0;5;0;10116;2;0;0;0;0;0;6;0;7572;2;0;0;0;0;0;7;0;5551;0;0;0;0;8;0;5492;0;0;0;0;9;0;2934;0;0;0;0
19.11.19;21:05:00;1;1118;9022;0;2;0;4075;0;0;0;0;3;0;2595;0;0;0;0;4;0;3628;0;0;0;0;5;0;10116;2;0;0;0;0;0;6;0;7572;2;0;0;0;0;0;7;0;5551;0;0;0;0;8;0;5492;0;0;0;0;9;0;2934;0;0;0;0
19.11.19;21:00:00;1;1177;8928;0;2;0;4075;0;0;0;0;3;0;2595;0;0;0;0;4;0;3628;0;0;0;0;5;0;10116;2;0;0;0;0;0;6;0;7572;2;0;0;0;0;0;7;0;5551;0;0;0;0;8;0;5492;0;0;0;0;9;0;2934;0;0;0;0
19.11.19;20:55:00;1;1148;8831;0;2;0;4075;0;0;0;0;3;0;2595;0;0;0;0;4;0;3628;0;0;0;0;5;0;10116;2;0;0;0;0;0;6;0;7572;2;0;0;0;0;0;7;0;5551;0;0;0;0;8;0;5492;0;0;0;0;9;0;2934;0;0;0;0
19.11.19;20:50:00;1;1165;8736;0;2;0;4075;0;0;0;0;3;0;2595;0;0;0;0;4;0;3628;0;0;0;0;5;0;10116;2;0;0;0;0;0;6;0;7572;2;0;0;0;0;0;7;0;5551;0;0;0;0;8;0;5492;0;0;0;0;9;0;2934;0;0;0;0
19.11.19;20:45:00;1;1148;8638;0;2;0;4075;0;0;0;0;3;0;2595;0;0;0;0;4;0;3628;0;0;0;0;5;0;10116;2;0;0;0;0;0;6;0;7572;2;0;0;0;0;0;7;0;5551;0;0;0;0;8;0;5492;0;0;0;0;9;0;2934;0;0;0;0
19.11.19;20:40:00;1;913;8544;0;2;0;4075;0;0;0;0;3;0;2595;0;0;0;0;4;0;3628;0;0;0;0;5;0;10116;2;0;0;0;0;0;6;0;7572;2;0;0;0;0;0;7;0;5551;0;0;0;0;8;0;5492;0;0;0;0;9;0;2934;0;0;0;0
19.11.19;20:35:00;1;947;8467;0;2;0;4075;0;0;0;0;3;0;2595;0;0;0;0;4;0;3628;0;0;0;0;5;0;10116;2;0;0;0;0;0;6;0;7572;2;0;0;0;0;0;7;0;5551;0;0;0;0;8;0;5492;0;0;0;0;9;0;2934;0;0;0;0
19.11.19;20:30:00;1;947;8377;0;2;0;4075;0;0;0;0;3;0;2595;0;0;0;0;4;0;3628;0;0;0;0;5;0;10116;2;0;0;0;0;0;6;0;7572;2;0;0;0;0;0;7;0;5551;0;0;0;0;8;0;5492;0;0;0;0;9;0;2934;0;0;0;0
19.11.19;20:25:00;1;900;8298;0;2;0;4075;0;0;0;0;3;0;2595;0;0;0;0;4;0;3628;0;0;0;0;5;0;10116;2;0;0;0;0;0;6;0;7572;2;0;0;0;0;0;7;0;5551;0;0;0;0;8;0;5492;0;0;0;0;9;0;2934;0;0;0;0
19.11.19;20:20:00;1;888;8223;0;2;0;4075;0;0;0;0;3;0;2595;0;0;0;0;4;0;3628;0;0;0;0;5;0;10116;2;0;0;0;0;0;6;0;7572;2;0;0;0;0;0;7;0;5551;0;0;0;0;8;0;5492;0;0;0;0;9;0;2934;0;0;0;0
19.11.19;20:15:00;1;901;8149;0;2;0;4075;0;0;0;0;3;0;2595;0;0;0;0;4;0;3628;0;0;0;0;5;0;10116;2;0;0;0;0;0;6;0;7572;2;0;0;0;0;0;7;0;5551;0;0;0;0;8;0;5492;0;0;0;0;9;0;2934;0;0;0;0
19.11.19;20:10:00;1;953;8073;0;2;0;4075;0;0;0;0;3;0;2595;0;0;0;0;4;0;3628;0;0;0;0;5;0;10116;2;0;0;0;0;0;6;0;7572;2;0;0;0;0;0;7;0;5551;0;0;0;0;8;0;5492;0;0;0;0;9;0;2934;0;0;0;0
19.11.19;20:05:00;1;907;7994;0;2;0;4075;0;0;0;0;3;0;2595;0;0;0;0;4;0;3628;0;0;0;0;5;0;10116;2;0;0;0;0;0;6;0;7572;2;0;0;0;0;0;7;0;5551;0;0;0;0;8;0;5492;0;0;0;0;9;0;2934;0;0;0;0
19.11.19;20:00:00;1;777;7922;0;2;0;4075;0;0;0;0;3;0;2595;0;0;0;0;4;0;3628;0;0;0;0;5;0;10116;2;0;0;0;0;0;6;0;7572;2;0;0;0;0;0;7;0;5551;0;0;0;0;8;0;5492;0;0;0;0;9;0;2934;0;0;0;0
19.11.19;19:55:00;1;821;7855;0;2;0;4075;0;0;0;0;3;0;2595;0;0;0;0;4;0;3628;0;0;0;0;5;0;10116;2;0;0;0;0;0;6;0;7572;2;0;0;0;0;0;7;0;5551;0;0;0;0;8;0;5492;0;0;0;0;9;0;2934;0;0;0;0
19.11.19;19:50:00;1;962;7782;0;2;0;4075;0;0;0;0;3;0;2595;0;0;0;0;4;0;3628;0;0;0;0;5;0;10116;2;0;0;0;0;0;6;0;7572;2;0;0;0;0;0;7;0;5551;0;0;0;0;8;0;5492;0;0;0;0;9;0;2934;0;0;0;0
19.11.19;19:45:00;1;979;7701;0;2;0;4075;0;0;0;0;3;0;2595;0;0;0;0;4;0;3628;0;0;0;0;5;0;10116;2;0;0;0;0;0;6;0;7572;2;0;0;0;0;0;7;0;5551;0;0;0;0;8;0;5492;0;0;0;0;9;0;2934;0;0;0;0
19.11.19;19:40:00;1;1020;7619;0;2;0;4075;0;0;0;0;3;0;2595;0;0;0;0;4;0;3628;0;0;0;0;5;0;10116;2;0;0;0;0;0;6;0;7572;2;0;0;0;0;0;7;0;5551;0;0;0;0;8;0;5492;0;0;0;0;9;0;2934;0;0;0;0
19.11.19;19:35:00;1;2371;7532;0;2;0;4075;0;0;0;0;3;0;2595;0;0;0;0;4;0;3628;0;0;0;0;5;0;10116;2;0;0;0;0;0;6;0;7572;2;0;0;0;0;0;7;0;5551;0;0;0;0;8;0;5492;0;0;0;0;9;0;2934;0;0;0;0
19.11.19;19:30:00;1;1004;7324;0;2;0;4075;0;0;0;0;3;0;2595;0;0;0;0;4;0;3628;0;0;0;0;5;0;10116;2;0;0;0;0;0;6;0;7572;2;0;0;0;0;0;7;0;5551;0;0;0;0;8;0;5492;0;0;0;0;9;0;2934;0;0;0;0
19.11.19;19:25:00;1;1862;7238;0;2;0;4075;0;0;0;0;3;0;2595;0;0;0;0;4;0;3628;0;0;0;0;5;0;10116;2;0;0;0;0;0;6;0;7572;2;0;0;0;0;0;7;0;5551;0;0;0;0;8;0;5492;0;0;0;0;9;0;2934;0;0;0;0
19.11.19;19:20:00;1;949;7111;0;2;0;4075;0;0;0;0;3;0;2595;0;0;0;0;4;0;3628;0;0;0;0;5;0;10116;2;0;0;0;0;0;6;0;7572;2;0;0;0;0;0;7;0;5551;0;0;0;0;8;0;5492;0;0;0;0;9;0;2934;0;0;0;0
19.11.19;19:15:00;1;990;7020;0;2;0;4075;0;0;0;0;3;0;2595;0;0;0;0;4;0;3628;0;0;0;0;5;0;10116;2;0;0;0;0;0;6;0;7572;2;0;0;0;0;0;7;0;5551;0;0;0;0;8;0;5492;0;0;0;0;9;0;2934;0;0;0;0
19.11.19;19:10:00;1;1039;6931;0;2;0;4075;0;0;0;0;3;0;2595;0;0;0;0;4;0;3628;0;0;0;0;5;0;10116;2;0;0;0;0;0;6;0;7572;2;0;0;0;0;0;7;0;5551;0;0;0;0;8;0;5492;0;0;0;0;9;0;2934;0;0;0;0
19.11.19;19:05:00;1;948;6851;0;2;0;4075;0;0;0;0;3;0;2595;0;0;0;0;4;0;3628;0;0;0;0;5;0;10116;2;0;0;0;0;0;6;0;7572;2;0;0;0;0;0;7;0;5551;0;0;0;0;8;0;5492;0;0;0;0;9;0;2934;0;0;0;0
19.11.19;19:00:00;1;1041;6769;0;2;0;4075;0;0;0;0;3;0;2595;0;0;0;0;4;0;3628;0;0;0;0;5;0;10116;2;0;0;0;0;0;6;0;7572;2;0;0;0;0;0;7;0;5551;0;0;0;0;8;0;5492;0;0;0;0;9;0;2934;0;0;0;0
19.11.19;18:55:00;1;1136;6680;0;2;0;4075;0;0;0;0;3;0;2595;0;0;0;0;4;0;3628;0;0;0;0;5;0;10116;2;0;0;0;0;0;6;0;7572;2;0;0;0;0;0;7;0;5551;0;0;0;0;8;0;5492;0;0;0;0;9;0;2934;0;0;0;0
19.11.19;18:50:00;1;1171;6586;0;2;0;4075;0;0;0;0;3;0;2595;0;0;0;0;4;0;3628;0;0;0;0;5;0;10116;2;0;0;0;0;0;6;0;7572;2;0;0;0;0;0;7;0;5551;0;0;0;0;8;0;5492;0;0;0;0;9;0;2934;0;0;0;0
19.11.19;18:45:00;1;1144;6489;0;2;0;4075;0;0;0;0;3;0;2595;0;0;0;0;4;0;3628;0;0;0;0;5;0;10116;2;0;0;0;0;0;6;0;7572;2;0;0;0;0;0;7;0;5551;0;0;0;0;8;0;5492;0;0;0;0;9;0;2934;0;0;0;0
19.11.19;18:40:00;1;2897;6393;0;2;0;4075;0;0;0;0;3;0;2595;0;0;0;0;4;0;3628;0;0;0;0;5;0;10116;2;0;0;0;0;0;6;0;7572;2;0;0;0;0;0;7;0;5551;0;0;0;0;8;0;5492;0;0;0;0;9;0;2934;0;0;0;0
19.11.19;18:35:00;1;845;6167;0;2;0;4075;0;0;0;0;3;0;2595;0;0;0;0;4;0;3628;0;0;0;0;5;0;10116;2;0;0;0;0;0;6;0;7572;2;0;0;0;0;0;7;0;5551;0;0;0;0;8;0;5492;0;0;0;0;9;0;2934;0;0;0;0
19.11.19;18:30:00;1;836;6096;0;2;0;4075;0;0;0;0;3;0;2595;0;0;0;0;4;0;3628;0;0;0;0;5;0;10116;2;0;0;0;0;0;6;0;7572;2;0;0;0;0;0;7;0;5551;0;0;0;0;8;0;5492;0;0;0;0;9;0;2934;0;0;0;0
19.11.19;18:25:00;1;1126;6025;0;2;0;4075;0;0;0;0;3;0;2595;0;0;0;0;4;0;3628;0;0;0;0;5;0;10116;2;0;0;0;0;0;6;0;7572;2;0;0;0;0;0;7;0;5551;0;0;0;0;8;0;5492;0;0;0;0;9;0;2934;0;0;0;0
19.11.19;18:20:00;1;1305;5933;0;2;0;4075;0;0;0;0;3;0;2595;0;0;0;0;4;0;3628;0;0;0;0;5;0;10116;2;0;0;0;0;0;6;0;7572;2;0;0;0;0;0;7;0;5551;0;0;0;0;8;0;5492;0;0;0;0;9;0;2934;0;0;0;0
19.11.19;18:15:00;1;3668;5787;0;2;0;4075;0;0;0;0;3;0;2595;0;0;0;0;4;0;3628;0;0;0;0;5;0;10116;2;0;0;0;0;0;6;0;7572;2;0;0;0;0;0;7;0;5551;0;0;0;0;8;0;5492;0;0;0;0;9;0;2934;0;0;0;0
19.11.19;18:10:00;1;1638;5517;0;2;0;4075;0;0;0;0;3;0;2595;0;0;0;0;4;0;3628;0;0;0;0;5;0;10116;2;0;0;0;0;0;6;0;7572;2;0;0;0;0;0;7;0;5551;0;0;0;0;8;0;5492;0;0;0;0;9;0;2934;0;0;0;0
19.11.19;18:05:00;1;1332;5389;0;2;0;4075;0;0;0;0;3;0;2595;0;0;0;0;4;0;3628;0;0;0;0;5;0;10116;2;0;0;0;0;0;6;0;7572;2;0;0;0;0;0;7;0;5551;0;0;0;0;8;0;5492;0;0;0;0;9;0;2934;0;0;0;0
19.11.19;18:00:00;1;1129;5296;0;2;0;4075;0;0;0;0;3;0;2595;0;0;0;0;4;0;3628;0;0;0;0;5;0;10116;2;0;0;0;0;0;6;0;7572;2;0;0;0;0;0;7;0;5551;0;0;0;0;8;0;5492;0;0;0;0;9;0;2934;0;0;0;0
19.11.19;17:55:00;1;1951;5190;0;2;0;4075;0;0;0;0;3;0;2595;0;0;0;0;4;0;3628;0;0;0;0;5;0;10116;2;0;0;0;0;0;6;0;7572;2;0;0;0;0;0;7;0;5551;0;0;0;0;8;0;5492;0;0;0;0;9;0;2934;0;0;0;0
19.11.19;17:50:00;1;767;5038;0;2;0;4075;0;0;0;0;3;0;2595;0;0;0;0;4;0;3628;0;0;0;0;5;0;10116;2;0;0;0;0;0;6;0;7572;2;0;0;0;0;0;7;0;5551;0;0;0;0;8;0;5492;0;0;0;0;9;0;2934;0;0;0;0
19.11.19;17:45:00;1;663;4968;0;2;0;4075;0;0;0;0;3;0;2595;0;0;0;0;4;0;3628;0;0;0;0;5;0;10116;2;0;0;0;0;0;6;0;7572;2;0;0;0;0;0;7;0;5551;0;0;0;0;8;0;5492;0;0;0;0;9;0;2934;0;0;0;0
19.11.19;17:40:00;1;668;4916;0;2;0;4075;0;0;0;0;3;0;2595;0;0;0;0;4;0;3628;0;0;0;0;5;0;10116;2;0;0;0;0;0;6;0;7572;2;0;0;0;0;0;7;0;5551;0;0;0;0;8;0;5492;0;0;0;0;9;0;2934;0;0;0;0
19.11.19;17:35:00;1;522;4863;0;2;0;4075;0;0;0;0;3;0;2595;0;0;0;0;4;0;3628;0;0;0;0;5;0;10116;2;0;0;0;0;0;6;0;7572;2;0;0;0;0;0;7;0;5551;0;0;0;0;8;0;5492;0;0;0;0;9;0;2934;0;0;0;0
19.11.19;17:30:00;1;529;4820;0;2;0;4075;0;0;0;0;3;0;2595;0;0;0;0;4;0;3628;0;0;0;0;5;0;10116;2;0;0;0;0;0;6;0;7572;2;0;0;0;0;0;7;0;5551;0;0;0;0;8;0;5492;0;0;0;0;9;0;2934;0;0;0;0
19.11.19;17:25:00;1;593;4775;0;2;0;4075;0;0;0;0;3;0;2595;0;0;0;0;4;0;3628;0;0;0;0;5;0;10116;2;0;0;0;0;0;6;0;7572;2;0;0;0;0;0;7;0;5551;0;0;0;0;8;0;5492;0;0;0;0;9;0;2934;0;0;0;0
19.11.19;17:20:00;1;592;4725;0;2;0;4075;0;0;0;0;3;0;2595;0;0;0;0;4;0;3628;0;0;0;0;5;0;10116;2;0;0;0;0;0;6;0;7572;2;0;0;0;0;0;7;0;5551;0;0;0;0;8;0;5492;0;0;0;0;9;0;2934;0;0;0;0
19.11.19;17:15:00;1;646;4675;0;2;0;4075;0;0;0;0;3;0;2595;0;0;0;0;4;0;3628;0;0;0;0;5;0;10116;2;0;0;0;0;0;6;0;7572;2;0;0;0;0;0;7;0;5551;0;0;0;0;8;0;5492;0;0;0;0;9;0;2934;0;0;0;0
19.11.19;17:10:00;1;625;4621;0;2;0;4075;0;0;0;0;3;0;2595;0;0;0;0;4;0;3628;0;0;0;0;5;0;10116;2;0;0;0;0;0;6;0;7572;2;0;0;0;0;0;7;0;5551;0;0;0;0;8;0;5492;0;0;0;0;9;0;2934;0;0;0;0
19.11.19;17:05:00;1;737;4568;0;2;0;4075;0;0;0;0;3;0;2595;0;0;0;0;4;0;3628;0;0;0;0;5;0;10116;2;0;0;0;0;0;6;0;7572;2;0;0;0;0;0;7;0;5551;0;0;0;0;8;0;5492;0;0;0;0;9;0;2934;0;0;0;0
19.11.19;17:00:00;1;587;4509;0;2;0;4075;0;0;0;0;3;0;2595;0;0;0;0;4;0;3628;0;0;0;0;5;0;10116;2;0;0;0;0;0;6;0;7572;2;0;0;0;0;0;7;0;5551;0;0;0;0;8;0;5492;0;0;0;0;9;0;2934;0;0;0;0
19.11.19;16:55:00;1;529;4460;0;2;0;4075;0;0;0;0;3;0;2595;0;0;0;0;4;0;3628;0;0;0;0;5;0;10116;2;0;0;0;0;0;6;0;7572;2;0;0;0;0;0;7;0;5551;0;0;0;0;8;0;5492;0;0;0;0;9;0;2934;0;0;0;0
19.11.19;16:50:00;1;467;4418;0;2;0;4075;0;0;109;5;3;0;2595;0;0;235;12;4;0;3628;0;0;0;0;5;0;10116;2;0;0;0;0;0;6;0;7572;2;0;0;0;0;0;7;0;5551;0;0;0;0;8;0;5492;0;0;0;0;9;0;2934;0;0;0;0
19.11.19;16:45:00;1;530;4379;0;2;0;4075;6;0;293;12;3;0;2595;6;0;329;15;4;0;3628;0;0;55;9;5;0;10116;2;0;0;0;0;0;6;0;7572;2;0;0;0;0;0;7;0;5551;0;0;0;0;8;0;5492;0;0;0;0;9;0;2934;0;0;0;0
19.11.19;16:40:00;1;391;4334;0;2;0;4075;6;0;353;12;3;0;2595;6;2;413;15;4;0;3628;1;0;123;11;5;0;10116;1;0;0;295;293;22;6;0;7572;2;6;1;251;226;17;7;0;5551;0;0;161;9;8;0;5492;0;0;156;9;9;0;2934;0;0;115;4
19.11.19;16:35:00;1;333;4303;0;2;0;4075;6;0;376;12;3;0;2595;6;4;425;15;4;0;3628;1;0;159;11;5;0;10116;26;0;0;391;410;23;6;0;7572;23;8;2;462;252;22;7;0;5551;6;0;324;16;8;0;5492;6;0;324;16;9;0;2934;6;0;333;12
19.11.19;16:30:00;1;298;4275;0;2;0;4075;6;0;393;12;3;0;2595;6;0;497;15;4;0;3628;1;0;189;11;5;0;10116;23;0;0;413;553;23;6;0;7572;23;7;2;181;552;22;7;0;5551;6;0;307;13;8;0;5492;6;0;382;16;9;0;2934;6;0;397;12
19.11.19;16:25:00;1;279;4250;0;2;2;4075;6;7;400;13;3;1;2595;4;3;497;16;4;0;3628;1;0;227;12;5;27;10116;1;2;11;409;642;24;6;0;7572;23;10;2;267;584;23;7;0;5551;6;0;85;3;8;0;5492;6;0;179;6;9;0;2934;6;0;278;7
19.11.19;16:20:00;1;213;4227;0;2;8;4074;6;19;398;13;3;1;2595;3;12;483;16;4;0;3628;3;0;200;12;5;83;10113;4;12;23;377;593;24;6;41;7572;1;15;16;507;483;24;7;1;5551;6;4;460;17;8;3;5492;6;9;436;17;9;3;2934;3;6;475;12
19.11.19;16:15:00;1;213;4209;0;2;25;4074;6;43;389;13;3;3;2595;6;9;525;16;4;6;3628;3;7;200;12;5;117;10106;4;36;32;377;594;24;6;75;7569;4;42;42;482;457;24;7;4;5551;6;9;480;17;8;1;5492;6;8;377;13;9;2;2934;6;5;520;13
19.11.19;16:10:00;1;213;4191;0;2;66;4072;4;99;365;14;3;5;2594;6;11;544;16;4;14;3627;3;14;198;12;5;165;10096;4;60;60;377;594;24;6;109;7563;4;49;53;482;457;24;7;50;5550;4;76;368;17;8;38;5491;6;65;415;17;9;3;2934;6;7;548;13
19.11.19;16:05:00;1;212;4174;0;2;106;4066;4;138;374;14;3;48;2594;6;76;486;16;4;54;3626;3;56;198;12;5;233;10081;4;102;91;377;594;24;6;155;7553;4;86;85;482;457;24;7;93;5546;4;128;420;17;8;89;5488;4;121;445;17;9;8;2934;6;14;558;13
19.11.19;16:00:00;1;213;4156;0;2;143;4057;4;178;379;14;3;81;2590;4;120;483;17;4;89;3621;3;92;210;13;5;299;10062;4;135;115;377;594;24;6;200;7540;4;99;99;482;457;24;7;132;5538;4;174;434;18;8;112;5481;4;143;342;14;9;56;2933;6;82;501;13
19.11.19;15:55:00;1;222;4138;0;2;177;4046;4;214;384;14;3;100;2584;4;141;501;17;4;120;3614;5;124;225;13;5;359;10036;4;167;145;383;594;24;6;241;7523;4;131;134;482;457;24;7;178;5527;4;216;417;18;8;176;5470;4;212;419;17;9;91;2928;4;119;494;14
19.11.19;15:50:00;1;275;4119;0;2;206;4031;4;246;389;14;3;120;2575;4;163;502;17;4;141;3604;5;148;226;13;5;411;10006;4;194;172;396;594;24;6;282;7502;4;145;150;482;488;24;7;223;5513;4;256;450;18;8;211;5455;4;254;445;17;9;107;2921;4;139;507;14
19.11.19;15:45:00;1;317;4095;0;2;228;4014;4;270;389;14;3;137;2565;4;176;513;17;4;165;3592;5;172;230;13;5;465;9971;4;223;195;401;636;24;6;341;7478;4;171;183;531;556;24;7;206;5488;0;234;369;14;8;242;5438;4;286;449;17;9;121;2912;4;156;508;14
19.11.19;15:40:00;1;250;4071;0;2;267;3995;4;306;395;14;3;154;2554;4;196;525;17;4;200;3579;5;208;233;13;5;529;9932;4;260;217;421;653;24;6;391;7450;4;199;202;576;561;24;7;226;5473;4;265;374;14;8;280;5417;4;314;483;17;9;140;2902;4;174;518;14
19.11.19;15:35:00;1;213;4050;0;2;268;3973;4;307;394;14;3;160;2541;4;203;523;17;4;202;3562;5;210;235;13;5;532;9888;4;259;220;406;635;24;6;401;7417;4;199;209;588;564;24;7;314;5450;4;353;473;18;8;288;5394;4;332;488;17;9;145;2890;4;177;526;14
19.11.19;15:30:00;1;213;4032;0;2;235;3950;4;274;381;14;3;139;2528;4;181;515;17;4;178;3545;5;186;232;13;5;491;9844;4;234;201;414;634;24;6;368;7383;4;186;190;582;562;24;7;256;5424;4;301;475;18;8;262;5370;4;296;475;17;9;129;2878;4;164;530;14
19.11.19;15:25:00;1;213;4014;0;2;230;3931;4;268;392;15;3;137;2516;4;178;509;17;4;169;3530;5;176;228;13;5;476;9803;4;231;201;405;639;24;6;361;7353;4;186;183;582;554;24;7;243;5402;4;290;457;18;8;246;5348;4;285;449;17;9;124;2867;4;160;524;14
19.11.19;15:20:00;1;272;3996;0;2;247;3911;4;284;395;15;3;141;2505;4;186;519;17;4;190;3516;5;197;234;13;5;504;9763;4;248;209;401;622;24;6;379;7323;4;184;185;579;560;24;7;253;5382;4;302;468;18;8;260;5328;4;300;472;17;9;133;2857;4;166;518;14
19.11.19;15:15:00;1;272;3973;0;2;275;3891;4;314;394;15;3;165;2493;4;209;509;17;4;209;3500;5;218;234;13;5;545;9721;4;276;226;407;604;24;6;416;7291;4;206;204;568;564;24;7;236;5355;0;270;371;14;8;293;5306;4;334;482;17;9;122;2843;0;149;419;11
19.11.19;15:10:00;1;313;3950;0;2;348;3868;4;391;406;15;3;210;2479;4;253;529;17;4;252;3483;5;262;236;13;5;660;9675;4;331;277;413;647;24;6;499;7255;4;263;262;584;564;24;7;392;5337;4;437;479;18;8;389;5282;4;429;485;17;9;180;2833;4;213;480;14
19.11.19;15:05:00;1;339;3924;0;2;496;3839;4;543;401;15;3;266;2462;4;315;529;17;4;323;3462;5;336;245;13;5;892;9618;4;454;376;418;668;24;6;670;7213;4;323;314;597;569;24;7;602;5305;4;654;474;18;8;593;5250;4;637;483;17;9;205;2818;4;235;385;11
19.11.19;15:00:00;1;317;3896;0;2;503;3797;4;551;407;15;3;274;2439;4;325;537;17;4;335;3435;5;348;243;13;5;942;9541;4;467;397;427;665;24;6;712;7155;4;375;375;587;570;24;7;714;5254;4;770;496;18;8;723;5200;4;772;486;17;9;333;2797;4;375;510;14
19.11.19;14:55:00;1;319;3869;0;2;330;3755;4;373;397;15;3;201;2417;4;244;518;17;4;249;3407;5;259;237;13;5;647;9465;4;316;269;413;656;24;6;497;7098;4;269;275;593;570;24;7;405;5194;4;438;484;18;8;397;5139;4;439;486;17;9;203;2769;4;238;527;14
19.11.19;14:50:00;1;286;3843;0;2;308;3727;4;348;397;15;3;185;2400;4;228;526;17;4;241;3386;5;251;236;13;5;623;9411;4;299;257;402;666;24;6;470;7057;4;234;234;586;566;24;7;273;5160;4;313;399;15;8;338;5106;4;380;468;17;9;176;2752;4;211;527;14
19.11.19;14:45:00;1;230;3819;0;2;305;3702;4;347;394;15;3;185;2384;4;227;523;17;4;243;3366;5;253;237;13;5;633;9359;4;300;258;405;646;24;6;475;7018;4;242;241;595;561;24;7;326;5133;4;371;479;18;8;330;5078;4;375;465;18;9;176;2737;4;211;527;14
19.11.19;14:40:00;1;214;3799;0;2;296;3676;4;337;387;15;3;181;2369;4;224;511;17;4;237;3346;5;247;235;13;5;616;9307;4;291;254;409;641;24;6;463;6978;4;231;231;587;563;24;7;310;5105;4;358;481;18;8;309;5050;4;357;488;18;9;172;2723;4;205;511;14
19.11.19;14:35:00;1;213;3781;0;2;293;3651;4;332;397;15;3;179;2354;4;220;504;17;4;234;3326;5;244;234;13;5;612;9256;4;292;255;411;650;24;6;462;6940;4;242;241;597;564;24;7;316;5080;4;352;492;18;8;312;5024;4;356;488;18;9;171;2708;4;203;508;14
19.11.19;14:30:00;1;253;3764;0;2;313;3627;4;355;398;15;3;190;2339;4;235;518;17;4;253;3306;5;263;236;13;5;658;9205;4;315;276;422;676;24;6;494;6901;4;257;254;584;565;24;7;327;5053;4;371;490;18;8;331;4998;4;371;484;18;9;174;2694;4;208;522;14
19.11.19;14:25:00;1;245;3742;0;2;327;3601;4;370;406;15;3;201;2323;4;246;521;17;4;270;3285;5;281;234;13;5;696;9149;4;339;292;413;671;24;6;526;6859;4;292;292;585;560;24;7;358;5026;4;401;483;18;8;353;4971;4;396;488;18;9;190;2679;4;225;524;14
19.11.19;14:20:00;1;235;3723;0;2;310;3574;4;353;405;15;3;193;2306;4;237;498;18;4;253;3263;5;263;236;13;5;669;9091;4;316;277;413;658;24;6;501;6816;4;272;276;586;568;24;7;331;4996;4;375;488;18;8;280;4941;4;318;393;15;9;182;2664;4;215;526;14
19.11.19;14:15:00;1;282;3702;0;2;321;3548;4;362;399;15;3;192;2290;4;236;482;18;4;259;3242;5;270;232;13;5;674;9036;4;325;284;413;654;25;6;502;6774;4;252;249;588;560;24;7;314;4969;4;366;494;18;8;334;4913;4;380;460;18;9;177;2649;4;210;510;14
19.11.19;14:10:00;1;302;3678;0;2;335;3521;4;379;411;15;3;207;2274;4;250;498;18;4;277;3220;5;289;239;14;5;703;8980;4;345;294;415;658;25;6;534;6732;4;274;276;585;563;24;7;283;4942;4;329;395;15;8;285;4885;4;329;401;15;9;186;2634;4;221;522;15
19.11.19;14:05:00;1;280;3653;0;2;365;3493;4;409;403;16;3;224;2257;4;269;507;18;4;300;3197;5;312;239;14;5;760;8920;4;374;313;414;664;25;6;565;6687;4;273;275;594;575;24;7;375;4914;4;416;457;18;8;363;4857;4;411;496;18;9;200;2618;4;235;519;15
19.11.19;14:00:00;1;261;3629;0;2;405;3463;4;450;410;16;3;250;2238;4;297;514;18;4;338;3172;5;352;238;14;5;834;8857;4;411;352;414;671;25;6;622;6640;4;313;321;584;569;24;7;66;4883;4;73;76;3;8;421;4827;4;467;460;18;9;225;2601;4;258;510;15
19.11.19;13:55:00;1;260;3607;0;2;447;3429;4;496;408;16;3;278;2217;4;326;521;18;4;372;3144;5;388;241;14;5;897;8788;4;442;376;418;664;25;6;674;6588;4;357;355;576;573;24;7;381;4840;0;411;386;14;8;460;4792;4;510;452;18;9;247;2583;4;285;518;15
19.11.19;13:50:00;1;308;3586;0;2;464;3392;4;511;400;16;3;287;2194;4;335;521;18;4;390;3113;5;406;241;14;5;930;8712;4;463;394;419;663;25;6;707;6531;4;404;403;596;569;24;7;491;4812;4;539;466;18;8;496;4753;4;543;465;18;9;265;2562;4;301;522;15